sat.trackr.live / text

‹ back to catalog

STARLINK-36147

NORAD 66987 · 2025-288AE

PAYLOAD ACTIVE UNKNOWN

§ Identity

Operator
Country
US
Launch date
2025-12-08
Launch site
AFETR
Launch vehicle
Mass (kg)
RCS (m²)

Purposes: comms

External: N2YO · Heavens-Above · Gunter

§ Orbital elements

Epoch: 2026-05-25T03:54:12.318912Z

Period
94.27 min
Inclination
43.0000°
Eccentricity
0.0001371
Mean motion
15.27590227 rev/d
Perigee alt
482.1 km
Apogee alt
484.0 km
Semi-major
6,861.2 km
B*
8.9498e-4
RAAN
311.5078°
Arg perigee
273.1548°
Mean anomaly
86.9146°
Rev number
2,698

§ Raw data

STARLINK-361471 66987U 25288AE  26145.16264258  .00024455  00000+0  89498-3 0  99932 66987  43.0000 311.5078 0001371 273.1548  86.9146 15.27590227 26981

JSON: /api/v1/satellites/66987 · /tle

For live sub-satellite position, see the globe view (requires WebGL).

§ Visibility from observer

Set your observer location to see the next 7 days of passes ≥ 10°. The values pass through the URL so the page stays shareable.

No JS? Fill the form by hand. The geolocation button needs JavaScript.